User: anonymous   Login
Location: Unspecified
(0.0000°N, 0.0000°E)
Time: 06:37:19
(UTC+00:00)
Language:

STARS - Orbit

View from above orbital plane
View from above orbital plane
View from above satellite
View from above satellite

Ground track
Ground track

The orbit data is extracted from the following two-line orbital elements,

1 33498U 09002G   19082.14358921  .00000179  00000-0  31897-4 0  9990
2 33498  98.3166 288.4293 0012297  89.0372 271.2247 14.78948138547068
Epoch (UTC): 23 March 2019 03:26:46
Eccentricity: 0.0012297
inclination: 98.3166°
perigee height: 624 km
apogee height: 641 km
right ascension of ascending node: 288.4293°
argument of perigee: 89.0372°
revolutions per day: 14.78948138
mean anomaly at epoch: 271.2247°
orbit number at epoch: 54706

The dashed part of the orbit path shows where the satellite is in the earth's shadow,  

DLR